• în Republica Moldova
  • Lista ţărilor
  • Pe 7 zile
  • Temperatura apei
  • Hartă satelitară
  • Meteo pe hartă
  • Widget-uri
  • user-avatar
    Intrare

    Meteo pe oră la Naroevo

    Astăzi, 17 August, Vineri

    Timp Temperatura Precipitaţii Vânt Presiune Umiditate
    00:00 +15°C° 0 mm 1 m/s 762 mmHg 87%
    01:00 +14°C° 0 mm 1 m/s 762 mmHg 89%
    02:00 +14°C° 0 mm 1 m/s 763 mmHg 92%
    03:00 +14°C° 0 mm 1 m/s 763 mmHg 93%
    04:00 +14°C° 0 mm 2 m/s 763 mmHg 94%
    05:00 +14°C° 0 mm 2 m/s 763 mmHg 95%
    06:00 +15°C° 0 mm 2 m/s 763 mmHg 89%
    07:00 +17°C° 0 mm 2 m/s 763 mmHg 82%
    08:00 +19°C° 0 mm 2 m/s 763 mmHg 74%
    09:00 +20°C° 0 mm 2 m/s 763 mmHg 69%
    10:00 +21°C° 0 mm 2 m/s 763 mmHg 64%
    11:00 +24°C° 0 mm 3 m/s 763 mmHg 59%
    12:00 +24°C° 0 mm 3 m/s 763 mmHg 57%
    13:00 +25°C° 0 mm 3 m/s 762 mmHg 55%
    14:00 +26°C° 0 mm 3 m/s 762 mmHg 54%
    15:00 +25°C° 0 mm 2 m/s 762 mmHg 56%
    16:00 +25°C° 0 mm 2 m/s 761 mmHg 58%
    17:00 +25°C° 0 mm 2 m/s 761 mmHg 60%
    18:00 +23°C° 0 mm 2 m/s 761 mmHg 67%
    19:00 +21°C° 0 mm 2 m/s 761 mmHg 74%
    20:00 +19°C° 0 mm 2 m/s 761 mmHg 81%
    21:00 +18°C° 0 mm 2 m/s 761 mmHg 83%
    22:00 +18°C° 0 mm 2 m/s 761 mmHg 85%
    23:00 +17°C° 0 mm 2 m/s 761 mmHg 87%

    Mâine, 18 August, Sâmbătă

    Timp Temperatura Precipitaţii Vânt Presiune Umiditate
    00:00 +17°C° 0 mm 2 m/s 761 mmHg 88%
    01:00 +16°C° 0 mm 2 m/s 761 mmHg 90%
    02:00 +16°C° 0 mm 2 m/s 761 mmHg 91%
    03:00 +16°C° 0 mm 2 m/s 761 mmHg 93%
    04:00 +15°C° 0 mm 2 m/s 761 mmHg 94%
    05:00 +15°C° 0 mm 2 m/s 761 mmHg 95%
    06:00 +17°C° 0 mm 2 m/s 761 mmHg 90%
    07:00 +19°C° 0 mm 3 m/s 761 mmHg 85%
    08:00 +20°C° 0 mm 3 m/s 761 mmHg 80%
    09:00 +22°C° 0,1 mm 3 m/s 761 mmHg 75%
    10:00 +24°C° 0,1 mm 3 m/s 761 mmHg 70%
    11:00 +26°C° 0,1 mm 3 m/s 761 mmHg 65%
    12:00 +26°C° 0,5 mm 3 m/s 760 mmHg 65%
    13:00 +26°C° 0,5 mm 3 m/s 760 mmHg 64%
    14:00 +27°C° 0,5 mm 3 m/s 759 mmHg 64%
    15:00 +26°C° 0,3 mm 3 m/s 759 mmHg 67%
    16:00 +26°C° 0,3 mm 3 m/s 759 mmHg 70%
    17:00 +26°C° 0,3 mm 3 m/s 759 mmHg 72%
    18:00 +24°C° 0,1 mm 3 m/s 759 mmHg 78%
    19:00 +22°C° 0,1 mm 3 m/s 759 mmHg 84%
    20:00 +20°C° 0,1 mm 2 m/s 759 mmHg 90%
    21:00 +20°C° 0 mm 3 m/s 759 mmHg 92%
    22:00 +19°C° 0 mm 3 m/s 759 mmHg 93%
    23:00 +19°C° 0 mm 3 m/s 759 mmHg 95%

    Poimâine, 19 August, Duminică

    Timp Temperatura Precipitaţii Vânt Presiune Umiditate
    00:00 +18°C° 0 mm 3 m/s 758 mmHg 96%
    01:00 +18°C° 0 mm 3 m/s 758 mmHg 96%
    02:00 +18°C° 0 mm 3 m/s 758 mmHg 97%
    03:00 +17°C° 0 mm 2 m/s 758 mmHg 97%
    04:00 +17°C° 0 mm 2 m/s 758 mmHg 98%
    05:00 +17°C° 0 mm 2 m/s 758 mmHg 98%
    06:00 +18°C° 0 mm 2 m/s 758 mmHg 94%
    07:00 +19°C° 0 mm 3 m/s 758 mmHg 90%
    08:00 +19°C° 0 mm 3 m/s 758 mmHg 85%
    09:00 +21°C° 0 mm 3 m/s 758 mmHg 75%
    10:00 +22°C° 0 mm 4 m/s 758 mmHg 66%
    11:00 +23°C° 0 mm 4 m/s 757 mmHg 56%
    12:00 +23°C° 0 mm 4 m/s 757 mmHg 55%
    13:00 +23°C° 0 mm 5 m/s 757 mmHg 53%
    14:00 +25°C° 0 mm 5 m/s 757 mmHg 52%
    15:00 +23°C° 0,1 mm 4 m/s 757 mmHg 59%
    16:00 +22°C° 0,1 mm 4 m/s 757 mmHg 67%
    17:00 +22°C° 0,1 mm 4 m/s 757 mmHg 74%
    18:00 +21°C° 0 mm 3 m/s 757 mmHg 78%
    19:00 +20°C° 0 mm 3 m/s 757 mmHg 83%
    20:00 +18°C° 0 mm 2 m/s 757 mmHg 88%
    21:00 +18°C° 0 mm 2 m/s 757 mmHg 89%
    22:00 +18°C° 0 mm 2 m/s 757 mmHg 90%
    23:00 +18°C° 0 mm 3 m/s 757 mmHg 91%

    20 August, Luni

    Timp Temperatura Precipitaţii Vânt Presiune Umiditate
    00:00 +17°C° 0,2 mm 3 m/s 757 mmHg 93%
    01:00 +17°C° 0,2 mm 3 m/s 757 mmHg 94%
    02:00 +17°C° 0,2 mm 3 m/s 757 mmHg 96%
    03:00 +17°C° 0,1 mm 3 m/s 757 mmHg 96%
    04:00 +16°C° 0,1 mm 3 m/s 757 mmHg 97%
    05:00 +16°C° 0,1 mm 3 m/s 757 mmHg 97%
    06:00 +17°C° 0 mm 3 m/s 757 mmHg 95%
    07:00 +17°C° 0 mm 3 m/s 757 mmHg 93%
    08:00 +18°C° 0 mm 3 m/s 757 mmHg 91%
    09:00 +18°C° 0,4 mm 3 m/s 757 mmHg 90%
    10:00 +18°C° 0,4 mm 2 m/s 757 mmHg 90%
    11:00 +18°C° 0,4 mm 2 m/s 757 mmHg 89%
    12:00 +18°C° 0,5 mm 2 m/s 756 mmHg 90%
    13:00 +18°C° 0,5 mm 2 m/s 756 mmHg 90%
    14:00 +19°C° 0,5 mm 2 m/s 756 mmHg 91%
    15:00 +19°C° 0,1 mm 2 m/s 756 mmHg 87%
    16:00 +20°C° 0,1 mm 2 m/s 756 mmHg 82%
    17:00 +21°C° 0,1 mm 2 m/s 756 mmHg 78%
    18:00 +20°C° 0 mm 2 m/s 756 mmHg 83%
    19:00 +20°C° 0 mm 1 m/s 756 mmHg 88%
    20:00 +18°C° 0 mm 1 m/s 756 mmHg 93%
    21:00 +18°C° 0,1 mm 1 m/s 756 mmHg 94%
    22:00 +17°C° 0,1 mm 2 m/s 756 mmHg 94%
    23:00 +16°C° 0,1 mm 2 m/s 756 mmHg 95%

    21 August, Marţi

    Timp Temperatura Precipitaţii Vânt Presiune Umiditate
    00:00 +16°C° 0,2 mm 2 m/s 756 mmHg 95%
    01:00 +16°C° 0,2 mm 2 m/s 756 mmHg 95%
    02:00 +16°C° 0,2 mm 2 m/s 756 mmHg 95%
    03:00 +15°C° 0 mm 1 m/s 756 mmHg 95%
    04:00 +14°C° 0 mm 1 m/s 756 mmHg 96%
    05:00 +14°C° 0 mm 1 m/s 756 mmHg 96%
    06:00 +15°C° 0 mm 1 m/s 756 mmHg 92%
    07:00 +16°C° 0 mm 1 m/s 756 mmHg 88%
    08:00 +18°C° 0 mm 1 m/s 756 mmHg 84%
    09:00 +20°C° 0 mm 1 m/s 756 mmHg 75%
    10:00 +21°C° 0 mm 1 m/s 756 mmHg 67%
    11:00 +23°C° 0 mm 1 m/s 756 mmHg 58%
    12:00 +23°C° 0 mm 1 m/s 756 mmHg 55%
    13:00 +23°C° 0 mm 1 m/s 755 mmHg 53%
    14:00 +24°C° 0 mm 1 m/s 755 mmHg 50%
    15:00 +23°C° 0 mm 1 m/s 755 mmHg 52%
    16:00 +23°C° 0 mm 1 m/s 755 mmHg 54%
    17:00 +23°C° 0 mm 1 m/s 754 mmHg 56%
    18:00 +21°C° 0 mm 1 m/s 754 mmHg 62%
    19:00 +20°C° 0 mm 1 m/s 754 mmHg 68%
    20:00 +18°C° 0 mm 1 m/s 754 mmHg 75%
    21:00 +16°C° 0 mm 1 m/s 754 mmHg 78%
    22:00 +16°C° 0 mm 1 m/s 754 mmHg 80%
    23:00 +15°C° 0 mm 1 m/s 754 mmHg 83%

    22 August, Miercuri

    Timp Temperatura Precipitaţii Vânt Presiune Umiditate
    00:00 +15°C° 0 mm 1 m/s 754 mmHg 85%
    01:00 +14°C° 0 mm 1 m/s 755 mmHg 86%
    02:00 +14°C° 0 mm 1 m/s 755 mmHg 87%
    03:00 +14°C° 0 mm 1 m/s 755 mmHg 86%
    04:00 +14°C° 0 mm 1 m/s 755 mmHg 84%
    05:00 +14°C° 0 mm 1 m/s 755 mmHg 83%
    06:00 +15°C° 0 mm 1 m/s 756 mmHg 81%
    07:00 +16°C° 0 mm 1 m/s 756 mmHg 79%
    08:00 +18°C° 0 mm 1 m/s 756 mmHg 76%
    09:00 +18°C° 0 mm 2 m/s 756 mmHg 72%
    10:00 +20°C° 0 mm 2 m/s 756 mmHg 68%
    11:00 +21°C° 0 mm 3 m/s 756 mmHg 63%
    12:00 +22°C° 0 mm 3 m/s 755 mmHg 59%
    13:00 +22°C° 0 mm 3 m/s 755 mmHg 56%
    14:00 +24°C° 0 mm 3 m/s 755 mmHg 52%
    15:00 +22°C° 0 mm 3 m/s 754 mmHg 58%
    16:00 +22°C° 0 mm 3 m/s 754 mmHg 63%
    17:00 +21°C° 0 mm 3 m/s 754 mmHg 69%
    18:00 +20°C° 0,3 mm 3 m/s 753 mmHg 75%
    19:00 +19°C° 0,3 mm 4 m/s 753 mmHg 82%
    20:00 +18°C° 0,3 mm 4 m/s 753 mmHg 88%
    21:00 +18°C° 0,4 mm 4 m/s 753 mmHg 90%
    22:00 +18°C° 0,4 mm 4 m/s 753 mmHg 92%
    23:00 +16°C° 0,4 mm 5 m/s 753 mmHg 94%
    Arată mai mult